Regional Weather Roundup
Issued by NWS

Home | Current Version | Previous Version | Text Only | Print | Product List | Glossary Off
Versions: 1 2 3 4 5 6 7 8 9 10 11 12 13 14 15 16 17 18 19 20 21 22 23 24 25 26 27 28 29 30 31 32 33 34 35 36 37 38 39 40 41 42 43 44 45 46 47 48 49 50

000
ASUS43 KBIS 230402
RWRND

NORTH DAKOTA REGIONAL WEATHER ROUNDUP
NATIONAL WEATHER SERVICE BISMARCK ND
1100 PM CDT WED MAR 22 2017

NOTE: "FAIR" INDICATES FEW OR NO CLOUDS BELOW 12,000 FEET WITH NO
SIGNIFICANT WEATHER AND/OR OBSTRUCTIONS TO VISIBILITY.


NDZ001>003-009>011-017-230500-
NORTHWEST NORTH DAKOTA

CITY           SKY/WX    TMP DP  RH WIND       PRES   REMARKS
WILLISTON      FAIR      35  31  85 CALM      29.79R
MINOT          FAIR      35  29  78 SE9       29.82F
MINOT AFB      CLOUDY    33  29  85 SE10      29.81F
$$

NDZ018>021-031>035-040>046-230500-
SOUTHWEST NORTH DAKOTA

CITY           SKY/WX    TMP DP  RH WIND       PRES   REMARKS
BISMARCK       FAIR      35  28  75 E8        29.89S
DICKINSON      MOCLDY    39  32  76 S12       29.77R
GARRISON         N/A     33  29  85 SE10      29.83S
HETTINGER ARPT CLEAR     36  31  82 E5        29.80S
$$

NDZ004>008-012>016-024-026-027-054-230500-
NORTHEAST NORTH DAKOTA

CITY           SKY/WX    TMP DP  RH WIND       PRES   REMARKS
GRAND FORKS    CLOUDY    34  20  56 S15G24    30.06F
GRND FRKS AFB  CLOUDY    33  24  70 S20       30.05F
DEVILS LAKE    CLOUDY    29  25  85 S16       29.95F WCI  17
$$

NDZ022-023-025-028>030-036>039-047>053-230500-
SOUTHEAST NORTH DAKOTA

CITY           SKY/WX    TMP DP  RH WIND       PRES   REMARKS
FARGO          CLOUDY    36  24  62 S23G35    30.08F
JAMESTOWN      FAIR      31  24  75 SE15      29.96F
$$





USA.gov is the U.S. government's official web portal to all federal, state and local government web resources and services.